Regional Weather Roundup
Issued by NWS Charleston, SC

Current Version | Previous Version | Text Only | Print | Product List | Glossary Off
Versions: 1 2 3 4 5 6 7 8 9 10 11 12 13 14 15 16 17 18 19 20 21 22 23 24 25 26 27 28 29 30 31 32 33 34 35 36 37 38 39 40 41 42 43 44 45 46 47 48 49 50

000
ASUS42 KCHS 200727
RWRCHS

REGIONAL WEATHER ROUNDUP
NATIONAL WEATHER SERVICE CHARLESTON SC
200 AM EST FRI JAN 20 2017

NOTE: "FAIR" INDICATES FEW OR NO CLOUDS BELOW 12,000 FEET WITH NO
SIGNIFICANT WEATHER AND/OR OBSTRUCTIONS TO VISIBILITY.

NOT ALL STATIONS ARE QUALITY CONTROLLED. USE DATA WITH CAUTION...
ESPECIALLY DEWPOINT OBSERVATIONS.

SCZ027-030-031-034>040-042>050-200800-
...SOUTHEAST SOUTH CAROLINA...

CITY           SKY/WX    TMP DP  RH WIND       PRES   REMARKS
N CHARLESTON   CLOUDY    55  52  89 CALM      29.94F
WATERFRONT PRK   N/A     58  56  92 CALM      29.95S
MOUNT PLEASANT LGT RAIN  55  54  94 CALM      29.95F
JOHNS ISLAND   FAIR      57  55  94 CALM      29.95F
PINOPOLIS        N/A     54  52  94 VRB3      29.87F
MONCKS CORNER  FAIR      52  50  93 CALM      29.94F
SUMMERVILLE    FAIR      55  55 100 CALM      29.95F
BEAUFORT MCAS  CLOUDY    59  57  93 SE3       29.93F
BEAUFORT ARPT  FAIR      55  55 100 CALM      29.94F
HILTON HEAD IS CLOUDY    55  55 100 CALM      29.95F
WALTERBORO     CLOUDY    54  54 100 E3        29.94F
ALLENDALE      CLOUDY    59  57  94 SE6       29.92F

...SOUTHERN MIDLANDS AND PEE DEE...

CITY           SKY/WX    TMP DP  RH WIND       PRES   REMARKS
GEORGETOWN     FAIR      50  50 100 CALM      29.97S
KINGSTREE      FAIR      52  48  87 CALM      29.94F
ORANGEBURG     CLOUDY    56  52  86 SE5       29.94F
BARNWELL       PTSUNNY   61  59  94 S5        29.93S
AIKEN          FAIR      55  54  94 S8        29.94S
MANNING        FAIR      50  39  66 CALM      29.95F
COLUMBIA       CLOUDY    55  49  80 E3        29.92F
SUMTER         MOCLDY    51  47  84 E3        29.91F
FLORENCE       CLOUDY    50  47  89 CALM      29.97S
MYRTLE BEACH   CLOUDY    57  50  77 E7        29.99S
N MYRTLE BEACH CLOUDY    53  51  93 NE3       29.96F

$$

GAZ063-065-086>088-099>101-113>116-118-119-134>141-150-200800-
...SOUTHEAST GEORGIA...

CITY           SKY/WX    TMP DP  RH WIND       PRES   REMARKS
SAVANNAH ARPT  CLOUDY    58  56  93 S3        29.95F
HUNTER AAF     PTCLDY    58  58 100 CALM      29.93S FOG
FORT STEWART   CLOUDY    57  55  92 CALM      29.92F
STATESBORO     CLOUDY    60  58  91 S7        29.93F
SYLVANIA       CLOUDY   N/A N/A N/A SE3       29.94S
CLAXTON        FAIR     N/A N/A N/A CALM      29.94F

...CSRA...CENTRAL AND FAR SOUTHEAST GEORGIA...

CITY           SKY/WX    TMP DP  RH WIND       PRES   REMARKS
THOMSON        CLOUDY    64  59  85 S6        29.93S
AUGUSTA-BUSH   CLOUDY    62  56  80 S8        29.91F
AUGUSTA-DANIEL MOCLDY    61  54  77 S8        29.91F
SWAINSBORO     PTSUNNY   61  59  94 S5        29.93S
VIDALIA        CLOUDY    63  63 100 S5        29.94S
EASTMAN        DRIZZLE   65  65  97 SW3       29.94S
HAZLEHURST     FAIR      65  65 100 S6        29.93S
ALMA           CLOUDY    63  63 100 S3        29.94S
WAYCROSS       CLOUDY    66  66 100 S5        29.96R
JESUP          FAIR      59  55  88 CALM      29.95S
BAXLEY         FAIR      63  63 100 CALM      29.94S
BRUNSWICK      CLOUDY    64  63  94 S3        29.95F
SAINT SIMONS   CLOUDY    65  61  87 S5        29.95F

$$

SCZ027-028-034-036>038-045-046-048>050-GAZ119-141-200800-
...LAKE AND SUPPLEMENTAL COASTAL OBSERVATIONS...

STATION/POSITION TIME  TEMP    WIND        PRES    WAVE   SWELL
                       AIR SEA DIR/SP/G            HT/PER HT/PER/DIR
                 (UTC) (F)     (DEG/KT/KT) (MB)    (FT/S) (FT/S/D)
WINYAH BAY       0645   56      50/  4     1014.0S
LAKE MURRAY      0720   57     110/  2/  7 1012.2
ACE BASIN NERRS  0645   56        CALM     1014.0S
FORT PULASKI     0700   57 58   CALM  /  1 1014.3
SAPELO ISLAND    0630   60        CALM     1014.0F

$$

ANZ835-935-AMZ111-154-330-350-352-354-370-450-454-472-200800-
...C-MAN AND BUOY OBSERVATIONS...

STATION/POSITION TIME  TEMP    WIND        PRES    WAVE   SWELL
                       AIR SEA DIR/SP/G            HT/PER HT/PER/DIR
                 (UTC) (F)     (DEG/KT/KT) (MB)    (FT/S) (FT/S/D)
BUOY 41004       0650   70 72   30/  4/  6 1014.0R   3/ 8   2/ 80/ 8
BUOY 41008       0650   61 60  180/  4/  4 1014.0F   2/10   2/ 50/10
FOLLY BEACH CMAN 0700   57      40/  4/  5 1014.7F
CAPERS NEARSHORE 0708   56 55   60/  4/  6 1014.0F
FRIPP NEARSHORE  0708   58 58  120/  2/  4 1013.4F


STATION/POSITION TIME  TEMP    WIND        PRES    WAVE   SWELL
                       AIR SEA DIR/SP/G            HT/PER HT/PER/DIR
                 (UTC) (F)     (DEG/KT/KT) (MB)    (FT/S) (FT/S/D)
5E ST. MARYS GA  0700      64                N/A     1/10
FRYING PAN BUOY  0710   67 71   90/  8/ 10 1014.5
BUOY 41025       0650   57 76  360/  4/  8 1016.2F   4/10   5/ 40/10
CAPE LOOKOUT NC  0700   54      20/  4/  5 1015.2F
BUOY 41002       0650   67 71  110/  2/  2 1015.6R   5/ 9   5/ 10/ 9
BUOY 41010       NOT AVBL
ST AUGUSTINE FL  0700   63 62  230/  4/  5 1015.5R


$$



USA.gov is the U.S. government's official web portal to all federal, state and local government web resources and services.